Regional Weather Roundup
Issued by NWS

Home | Current Version | Previous Version | Text Only | Print | Product List | Glossary Off
Versions: 1 2 3 4 5 6 7 8 9 10 11 12 13 14 15 16 17 18 19 20 21 22 23 24 25 26 27 28 29 30 31 32 33 34 35 36 37 38 39 40 41 42 43 44 45 46 47 48 49 50

000
ASUS43 KMPX 271210
RWRMN
WEATHER ROUNDUP FOR MINNESOTA
NATIONAL WEATHER SERVICE TWIN CITIES/CHANHASSEN MN
600 AM CST THU NOV 27 2014


NOTE: "FAIR" INDICATES FEW OR NO CLOUDS BELOW 12,000 FEET WITH NO
SIGNIFICANT WEATHER AND/OR OBSTRUCTIONS TO VISIBILITY. N/A MEANS
CURRENT SKY AND/OR WEATHER CONDITIONS ARE NOT AVAILABLE.

MNZ060>063-068>070-271300-
   Twin Cities Metro

CITY           SKY/WX    TMP DP  RH WIND       PRES   REMARKS
TWIN CITIES    PTCLDY     0  -7  72 NW8       30.49R WCI -14
6HR MIN TEMP:   0; 6HR MAX TEMP:  11;

ST PAUL        PTCLDY     0  -5  79 NW9       30.51R WCI -15
CRYSTAL        PTCLDY     0  -7  72 NW7       30.49R WCI -13
BLAINE         CLEAR      0  -4  85 NW8       30.48R WCI -15
LAKEVILLE      PTCLDY    -8  -9  92 NW5       30.47R WCI -19
EDEN PRAIRIE   PTCLDY    -1  -7  75 NW7       30.48R WCI -14
6HR MIN TEMP:  -1; 6HR MAX TEMP:  10;

SOUTH ST PAUL  PTCLDY     1  -5  75 NW7       30.49R WCI -11
$$
MNZ001>005-007-008-013>017-022>024-027-028-271300-
   Northwest Minnesota

CITY           SKY/WX    TMP DP  RH WIND       PRES   REMARKS
HALLOCK        PTCLDY   -17 -22  76 S6        30.49F WCI -31
ROSEAU         PTCLDY   -15 -20  76 CALM      30.48F
WARROAD        PTCLDY   -17 -22  76 CALM      30.46F
THIEF RVR FALL PTCLDY   -17 -20  83 S5        30.47F WCI -29
CROOKSTON      PTCLDY   -15 -18  84 S3        30.53F
FOSSTON        PTCLDY   -20 -27  69 CALM      30.48S
DETROIT LAKES  MOCLDY   -11 -15  84 CALM      30.47S
MOORHEAD       PTCLDY   -11 -15  84 CALM      30.53F
PARK RAPIDS    PTCLDY   -16 -21  78 W3        30.43F
MAHNOMEN       FAIR     -13 -18  80 CALM      30.48S
$$
MNZ006-009>011-018-025>026-271300-
   North Central Minnesota

CITY           SKY/WX    TMP DP  RH WIND       PRES   REMARKS
BAUDETTE       PTCLDY   -16 -21  78 CALM      30.45F
FLAG ISLAND    PTCLDY   -17 -20  83 CALM      30.46F
INTL FALLS     PTCLDY   -18 -23  77 CALM      30.45S
6HR MIN TEMP: -18; 6HR MAX TEMP: -10;

WASKISH        PTCLDY   -11 -17  77 CALM      30.45F
BIG FORK       MOCLDY   -15 -20  76 CALM      30.45S
LONGVILLE      PTCLDY    -9 -15  77 CALM      30.45S
GRAND RAPIDS   PTCLDY   -11 -15  84 NW3       30.42F
CRANE LAKE     PTCLDY   -18 -20  91 CALM      30.47S
ORR            MOCLDY   -15 -20  76 CALM      30.40F
COOK           MOCLDY   -18 -26  69 CALM      30.43S
WALKER         FAIR     -15 -19  80 CALM      30.45F
$$
MNZ012-019>021-037-271300-
   Northeast Minnesota

CITY           SKY/WX    TMP DP  RH WIND       PRES   REMARKS
DULUTH         PTCLDY    -7 -14  71 NW8       30.38F WCI -23
6HR MIN TEMP:  -8; 6HR MAX TEMP:  -2;

ELY            PTCLDY   -17 -22  76 CALM      30.40S
HIBBING        PTCLDY   -11 -17  75 N7        30.42S WCI -26
EVELETH        LGT SNOW  -8 -13  77 NW3       30.42S
DULUTH HARBOR  PTCLDY     0  -8  71 NW10      30.49S WCI -17
TWO HARBORS    CLEAR     -2  -9  71 NW3       30.39S
SILVER BAY     PTCLDY    -6 -11  77 CALM      30.39F
GRAND MARAIS     N/A     -4 -13  65 N22G33    30.39S WCI -28
G MARAIS ARPRT PTCLDY   -11 -18  70 N13       30.29S WCI -32
$$
MNZ029>031-032-039>041-046>048-054>057-064-271300-
   West Central Minnesota

CITY           SKY/WX    TMP DP  RH WIND       PRES   REMARKS
FERGUS FALLS   PTCLDY   -13 -18  77 CALM      30.56S
WHEATON        PTCLDY    -9 -15  77 W3        30.56F
MORRIS         MOCLDY   -11 -17  77 W6        30.51S WCI -25
ALEXANDRIA     PTCLDY    -9 -13  83 W5        30.47R WCI -20
WADENA         PTCLDY    -9 -15  77 CALM      30.46S
GLENWOOD       PTCLDY    -8 -11  84 NW3       30.48S
APPLETON       MOCLDY    -9 -15  77 W7        30.55S WCI -24
BENSON         MOCLDY   -11 -17  77 CALM      30.52R
ORTONVILLE     MOCLDY    -8 -13  77 NW3       30.53F
MADISON        MOCLDY    -6 -11  77 NW6       30.54F WCI -18
WILLMAR        FAIR      -8 -13  77 NW9       30.51S WCI -25
$$
MNZ033>034-036-042>043-049>051-058-059-271300-
   Central Minnesota

CITY           SKY/WX    TMP DP  RH WIND       PRES   REMARKS
ST CLOUD       FAIR      -4 -10  75 NW8       30.49R WCI -19
6HR MIN TEMP:  -4; 6HR MAX TEMP:   4;

PAYNESVILLE    PTCLDY   -10 -13  85 W5        30.50R WCI -22
AITKIN         CLEAR     -6 -11  77 CALM      30.45S
PINE RIVER     PTCLDY   -11 -15  84 CALM      30.48F
BRAINERD       PTCLDY    -8 -11  86 N5        30.46F WCI -19
STAPLES        PTCLDY   -11 -15  84 NW3       30.46S
LITTLE FALLS   PTCLDY    -6 -11  77 CALM      30.49S
LITCHFIELD     PTCLDY    -6  -8  92 W5        30.49S WCI -17
BUFFALO        PTCLDY    -3  -7  81 W6        30.51R WCI -15
MAPLE LAKE     PTCLDY    -3  -7  83 NW5       30.50R WCI -13
$$
MNZ037-044-045-052-053-271300-
   East Central Minnesota

CITY           SKY/WX    TMP DP  RH WIND       PRES   REMARKS
PRINCETON      CLEAR     -2  -8  78 CALM      30.48S
MORA           CLEAR     -4  -8  84 N3        30.49S
CAMBRIDGE      CLEAR      0  -8  71 N5        30.46F WCI -10
RUSH CITY      MOCLDY    -3  -7  81 NW5       30.48S WCI -13
MOOSE LAKE     CLEAR     -6  -9  84 NW7       30.45S WCI -20
CLOQUET        PTCLDY    -8 -13  77 NW8       30.42R WCI -23
MCGREGOR       CLEAR     -6 -11  77 NW5       30.46F WCI -17
$$
MNZ071>073-080-081-089-090-097-098-271300-
   Southwest Minnesota

CITY           SKY/WX    TMP DP  RH WIND       PRES   REMARKS
MONTEVIDEO     PTCLDY    -8 -11  84 NW7       30.54S WCI -22
GRANITE FALLS  PTCLDY   -10 -14  81 W8        30.55S WCI -26
CANBY          MOCLDY    -8 -13  82 W5        30.54F WCI -20
MARSHALL       PTCLDY    -9 -17  70 NW8       30.50F WCI -26
REDWOOD FALLS  PTCLDY    -9 -14  78 NW9       30.53R WCI -26
OLIVIA         PTCLDY    -6 -11  77 NW8       30.52R WCI -21
PIPESTONE      PTCLDY    -4 -11  71 NE5       30.44F WCI -15
WINDOM         FLURRIES  -8 -11  84 NW7       30.48R WCI -22
WORTHINGTON    PTCLDY    -9 -13  84 N7        30.46F WCI -24
JACKSON        PTCLDY    -8 -13  77 NW6       30.47R WCI -21
TRACY          PTCLDY    -7 -11  81 NW9       30.50S WCI -24
SLAYTON        PTCLDY    -7 -11  81 N6        30.47S WCI -20
$$
MNZ065>067-074>077-082>085-091>093-271300-
   South Central Minnesota

CITY           SKY/WX    TMP DP  RH WIND       PRES   REMARKS
MANKATO        PTCLDY    -8 -15  71 NW9       30.48R WCI -25
NEW ULM        FAIR     -11 -15  84 NW8       30.51R WCI -28
ST JAMES       PTCLDY    -8 -13  77 W12       30.52R WCI -27
FAIRMONT       PTCLDY    -6 -11  77 NW12      30.47R WCI -24
GLENCOE        PTCLDY    -5  -9  84 W7        30.49R WCI -20
FARIBAULT      PTCLDY    -4  -9  77 NW6       30.46R WCI -16
OWATONNA       PTCLDY   -11 -17  77 CALM      30.45R HAZE
WASECA         PTCLDY   -11 -17  77 NW6       30.49R WCI -25
ALBERT LEA     PTCLDY    -8  -9  92 NW6       30.44R WCI -21
$$
MNZ078>079-086>088-094>096-271300-
   Southeast Minnesota

CITY           SKY/WX    TMP DP  RH WIND       PRES   REMARKS
ROCHESTER      PTCLDY    -2  -7  79 NW12      30.40R WCI -20
6HR MIN TEMP:  -2; 6HR MAX TEMP:  19; 6HR PCP: TRACE;

RED WING         N/A      1  -6  71 NW5       30.47R WCI  -8
STANTON        PTCLDY    -2  -7  80 NW6       30.46R WCI -14
DODGE CENTER   PTCLDY    -2  -6  84 NW9       30.40S WCI -18
WINONA         PTCLDY    10   3  72 NW9       30.44R WCI  -2
AUSTIN         PTCLDY    -2  -8  78 NW9       30.42R WCI -18
PRESTON        CLEAR      3  -3  78 NW9       30.40R WCI -12
$$
ABBREVIATIONS USED IN REMARKS
   TC - TEMPERATURES IN CELSIUS
  WCI - WIND CHILL INDEX
   HX - HEAT INDEX
  VSB - VISIBILITY
$$



USA.gov is the U.S. government's official web portal to all federal, state and local government web resources and services.